Tracking 31023 objects as of 19-Jul-2025
HD Live streaming from Space Station
objects crossing your sky now

ASAP-S

Track ASAP-S now!
10-day predictions
ASAP-S is classified as:


NORAD ID: 38013
Int'l Code: 2011-076G
Perigee: 518.9 km
Apogee: 528.5 km
Inclination: 98.0 °
Period: 95.0 minutes
Semi major axis: 6894 km
RCS: 2.764 m2 (large)
Launch date: December 17, 2011
Source: France (FR)
Launch site: FRENCH GUIANA (FRGUI)
Your satellite tracking list
Your tracking list is empty




NASA's NSSDC Master Catalog

Two Line Element Set (TLE):
1 38013U 11076G   25200.57638081  .00005365  00000-0  27947-3 0  9998
2 38013  98.0221 104.6625 0006933 212.1430 147.9380 15.16449188742289
Source of the keplerian elements: AFSPC